Location: *
(55.5817°S, 142.4781°W)
Time: 06:42:08
(UTC+00:00)

Nadezhda 4 Rocket - Pass Details

Date: 29 April 2025
Orbit: 948 x 991 km, 82.9° (Epoch: 23 May)

Event Time Altitude Azimuth Distance (km) Brightness Sun altitude
Rises 14:42:31 0° 192° (SSW) 3,751 7.0 -18.4°
Reaches altitude 10° 14:45:05 10° 189° (S) 2,796 6.3 -18.0°
Maximum altitude 14:51:31 74° 104° (ESE) 1,044 4.3 -17.1°
Drops below altitude 10° 14:57:52 10° 18° (NNE) 2,749 6.6 -16.2°
Sets 15:00:22 0° 16° (NNE) 3,685 7.3 -15.8°
